FENGYUN 1C DEB, 32096

Orbit data source: Space-Track

FENGYUN 1C DEB, 32096 is space debris in SSO originally from a launch on Mon, 10 May 1999 UTC launched from the Taiyaun Space Center, China (TSC). Fengyun 1C debris stems from the Chinese weather satellite Fengyun-1C, which was intentionally destroyed by a Chinese anti-satellite missile in 2007. This event dramatically increased the amount of space debris, with thousands of trackable fragments posing hazards to satellites and human spaceflight. The Fengyun 1C debris cloud has become a focal point in discussions about space sustainability and the need for international regulations to prevent the creation of new debris.

Loading next visibility...
Identifier
32096, 1999-025CQN
Orbit
SSO
Country
Flag of CNCN / PRC
Related business
Manufacturer
Unknown
Mission
Spacecraft
Bus & Motor
Unknown
Mass
Unknown
Launch date (UTC)
1999-05-10 (27 years ago)
Launch vehicle
Unknown
Launch site
Taiyaun Space Center, China (TSC)
Object type
Payload
Rocket body
Debris
Shape & HBR
Unknown shape, 0.1 m
Radar Cross Section
Small (<0.1 m²)

Expand to show TLE details & history
Last TLE update: 9 hours ago

TLE from 9 hours ago
0 FENGYUN 1C DEB
1 32096U 99025CQN 26151.02748675  .00001907  00000-0  14489-2 0  9994
2 32096  99.0557 180.8646 0136429  41.9329 319.2182 13.90676952952148
Epoch: 2026-05-31T00:39Z
TLE epoch observation values (Epoch: 2026-05-31T00:39:34.855Z)
Latitude
-0°
Longitude
-77.56569°
Altitude
854.24 km
Speed
7.463 km/s
True Right ascension
12h 03m 27s
True Declination
0° 00' 00"
Sunlit
Object was in daylight at epoch
Visualization orbit readout
Latitude
Unknown
Longitude
Unknown
Altitude
Unknown
Speed
Unknown
Apparent Right ascension
Unknown
Apparent Declination
Unknown
Sunlit
N/A
Visualization observer readout
Local Sidereal Time
19:23:46
Azimuth
Unknown
Elevation
Unknown
Doppler factor
Unknown
Orbital elements
Apogee altitude
1,023.088 km
Perigee altitude
823.858 km
Semi-major axis
7,301.61 km
Eccentricity
0.01364
Inclination
99.0557°
RAAN
180.8646°
Arg. of periapsis
41.9329°
True anomaly
318.18375°
Mean anomaly
319.2182°
Eccentric anomaly
318.70231°
Mean motion
3.47869 °/min
Orbital period
103.49 mins
BSTAR
0.0014489
Loading maneuver chart data...
Computing Atmospheric mass density...
Loading historical data...
Loading historical data...
Loading historical data...
Loading historical data...
Loading historical data...
Loading historical data...
Loading historical data...

Documentation

Showing up to 5 results
|